When you browse on this site, cookies collect data to enhance your experience and personalize the content and advertising you see.
Visit our Privacy Policy to learn more. By continuing to use the site, you agree to this use of cookies and data.
  • In Germany
  • List of Countries
  • For 7 days
  • Water Temperature
  • Weather Map
  • Weather Widgets
  • user-avatar
    Login

    Hourly Weather Yerevan

    Today, 19 September, Thursday

    Time Temperature Precipitation Wind Pressure Humidity
    00:00 +22°C° 0 mm 1 mps 692 mmHg 34%
    01:00 +21°C° 0 mm 1 mps 692 mmHg 35%
    02:00 +21°C° 0 mm 1 mps 692 mmHg 36%
    03:00 +20°C° 0 mm 1 mps 692 mmHg 37%
    04:00 +20°C° 0 mm 1 mps 692 mmHg 38%
    05:00 +20°C° 0 mm 1 mps 692 mmHg 39%
    06:00 +19°C° 0 mm 1 mps 692 mmHg 41%
    07:00 +22°C° 0 mm 1 mps 692 mmHg 36%
    08:00 +24°C° 0 mm 1 mps 692 mmHg 31%
    09:00 +27°C° 0 mm 1 mps 692 mmHg 26%
    10:00 +28°C° 0 mm 1 mps 692 mmHg 24%
    11:00 +30°C° 0 mm 1 mps 693 mmHg 22%
    12:00 +31°C° 0 mm 1 mps 693 mmHg 20%
    13:00 +32°C° 0 mm 1 mps 692 mmHg 18%
    14:00 +32°C° 0 mm 1 mps 692 mmHg 17%
    15:00 +33°C° 0 mm 1 mps 692 mmHg 16%
    16:00 +31°C° 0 mm 1 mps 692 mmHg 19%
    17:00 +29°C° 0 mm 1 mps 691 mmHg 22%
    18:00 +27°C° 0 mm 1 mps 691 mmHg 25%
    19:00 +27°C° 0 mm 1 mps 691 mmHg 25%
    20:00 +26°C° 0 mm 2 mps 692 mmHg 25%
    21:00 +25°C° 0 mm 2 mps 692 mmHg 25%
    22:00 +24°C° 0 mm 2 mps 692 mmHg 27%
    23:00 +23°C° 0 mm 2 mps 692 mmHg 29%

    Tomorrow, 20 September, Friday

    Time Temperature Precipitation Wind Pressure Humidity
    00:00 +21°C° 0 mm 2 mps 691 mmHg 31%
    01:00 +22°C° 0 mm 1 mps 691 mmHg 33%
    02:00 +21°C° 0 mm 1 mps 691 mmHg 36%
    03:00 +20°C° 0 mm 1 mps 690 mmHg 38%
    04:00 +20°C° 0 mm 1 mps 690 mmHg 40%
    05:00 +19°C° 0 mm 1 mps 690 mmHg 42%
    06:00 +19°C° 0 mm 1 mps 690 mmHg 44%
    07:00 +22°C° 0 mm 1 mps 690 mmHg 38%
    08:00 +24°C° 0 mm 1 mps 691 mmHg 32%
    09:00 +27°C° 0 mm 1 mps 691 mmHg 26%
    10:00 +28°C° 0 mm 1 mps 691 mmHg 23%
    11:00 +30°C° 0 mm 2 mps 690 mmHg 20%
    12:00 +33°C° 0 mm 3 mps 690 mmHg 17%
    13:00 +32°C° 0 mm 2 mps 689 mmHg 16%
    14:00 +34°C° 0 mm 2 mps 689 mmHg 15%
    15:00 +35°C° 0 mm 2 mps 688 mmHg 13%
    16:00 +32°C° 0 mm 2 mps 688 mmHg 15%
    17:00 +30°C° 0 mm 2 mps 688 mmHg 17%
    18:00 +29°C° 0 mm 2 mps 687 mmHg 19%
    19:00 +28°C° 0 mm 2 mps 687 mmHg 20%
    20:00 +27°C° 0 mm 2 mps 687 mmHg 21%
    21:00 +26°C° 0 mm 2 mps 687 mmHg 22%
    22:00 +25°C° 0 mm 2 mps 687 mmHg 23%
    23:00 +25°C° 0 mm 1 mps 687 mmHg 25%

    Day after tomorrow, 21 September, Saturday

    Time Temperature Precipitation Wind Pressure Humidity
    00:00 +24°C° 0 mm 1 mps 687 mmHg 26%
    01:00 +23°C° 0 mm 1 mps 686 mmHg 28%
    02:00 +23°C° 0 mm 2 mps 686 mmHg 29%
    03:00 +21°C° 0 mm 2 mps 686 mmHg 31%
    04:00 +20°C° 0 mm 2 mps 685 mmHg 36%
    05:00 +20°C° 0 mm 3 mps 685 mmHg 42%
    06:00 +19°C° 0 mm 3 mps 685 mmHg 48%
    07:00 +21°C° 0 mm 3 mps 685 mmHg 43%
    08:00 +23°C° 0 mm 4 mps 685 mmHg 38%
    09:00 +26°C° 0 mm 4 mps 686 mmHg 33%
    10:00 +28°C° 0 mm 4 mps 686 mmHg 29%
    11:00 +29°C° 0 mm 5 mps 686 mmHg 24%
    12:00 +32°C° 0 mm 5 mps 685 mmHg 20%
    13:00 +32°C° 0 mm 6 mps 686 mmHg 19%
    14:00 +33°C° 0 mm 7 mps 686 mmHg 18%
    15:00 +33°C° 0 mm 7 mps 686 mmHg 16%
    16:00 +29°C° 0 mm 8 mps 686 mmHg 22%
    17:00 +26°C° 0 mm 8 mps 686 mmHg 28%
    18:00 +22°C° 0 mm 8 mps 686 mmHg 34%
    19:00 +21°C° 0 mm 7 mps 687 mmHg 35%
    20:00 +18°C° 0 mm 7 mps 688 mmHg 36%
    21:00 +17°C° 0 mm 7 mps 689 mmHg 37%
    22:00 +16°C° 0 mm 6 mps 689 mmHg 37%
    23:00 +15°C° 0 mm 6 mps 690 mmHg 37%

    22 September, Sunday

    Time Temperature Precipitation Wind Pressure Humidity
    00:00 +14°C° 0 mm 6 mps 690 mmHg 38%
    01:00 +14°C° 0 mm 5 mps 690 mmHg 39%
    02:00 +13°C° 0 mm 5 mps 690 mmHg 40%
    03:00 +12°C° 0 mm 4 mps 691 mmHg 42%
    04:00 +12°C° 0 mm 4 mps 691 mmHg 43%
    05:00 +12°C° 0 mm 3 mps 691 mmHg 43%
    06:00 +11°C° 0 mm 3 mps 691 mmHg 44%
    07:00 +13°C° 0 mm 3 mps 692 mmHg 40%
    08:00 +16°C° 0 mm 3 mps 692 mmHg 36%
    09:00 +17°C° 0 mm 3 mps 693 mmHg 32%
    10:00 +19°C° 0 mm 3 mps 692 mmHg 29%
    11:00 +20°C° 0 mm 2 mps 692 mmHg 26%
    12:00 +21°C° 0 mm 2 mps 692 mmHg 23%
    13:00 +23°C° 0 mm 2 mps 691 mmHg 22%
    14:00 +24°C° 0 mm 2 mps 691 mmHg 21%
    15:00 +25°C° 0 mm 2 mps 690 mmHg 19%
    16:00 +23°C° 0 mm 1 mps 690 mmHg 23%
    17:00 +21°C° 0 mm 1 mps 690 mmHg 26%
    18:00 +20°C° 0 mm 1 mps 690 mmHg 30%
    19:00 +19°C° 0 mm 1 mps 690 mmHg 33%
    20:00 +17°C° 0 mm 2 mps 690 mmHg 37%
    21:00 +17°C° 0 mm 3 mps 691 mmHg 40%
    22:00 +16°C° 0 mm 3 mps 691 mmHg 43%
    23:00 +15°C° 0 mm 2 mps 690 mmHg 45%

    23 September, Monday

    Time Temperature Precipitation Wind Pressure Humidity
    00:00 +15°C° 0 mm 2 mps 690 mmHg 47%
    01:00 +14°C° 0 mm 2 mps 690 mmHg 49%
    02:00 +14°C° 0 mm 2 mps 690 mmHg 51%
    03:00 +13°C° 0 mm 2 mps 690 mmHg 54%
    04:00 +13°C° 0 mm 1 mps 690 mmHg 55%
    05:00 +12°C° 0 mm 1 mps 690 mmHg 56%
    06:00 +12°C° 0 mm 1 mps 690 mmHg 58%
    07:00 +14°C° 0 mm 1 mps 690 mmHg 51%
    08:00 +18°C° 0 mm 1 mps 691 mmHg 44%
    09:00 +20°C° 0 mm 1 mps 691 mmHg 36%
    10:00 +22°C° 0 mm 1 mps 691 mmHg 33%
    11:00 +23°C° 0 mm 1 mps 691 mmHg 30%
    12:00 +25°C° 0 mm 1 mps 691 mmHg 27%
    13:00 +26°C° 0 mm 2 mps 690 mmHg 26%
    14:00 +26°C° 0 mm 2 mps 690 mmHg 24%
    15:00 +27°C° 0 mm 2 mps 690 mmHg 23%
    16:00 +25°C° 0 mm 1 mps 689 mmHg 27%
    17:00 +24°C° 0 mm 1 mps 689 mmHg 30%
    18:00 +22°C° 0 mm 1 mps 689 mmHg 34%
    19:00 +21°C° 0 mm 1 mps 689 mmHg 37%
    20:00 +19°C° 0 mm 2 mps 690 mmHg 41%
    21:00 +18°C° 0 mm 2 mps 690 mmHg 44%
    22:00 +18°C° 0 mm 2 mps 690 mmHg 46%
    23:00 +17°C° 0 mm 2 mps 690 mmHg 48%

    24 September, Tuesday

    Time Temperature Precipitation Wind Pressure Humidity
    00:00 +16°C° 0 mm 2 mps 690 mmHg 50%
    01:00 +16°C° 0 mm 2 mps 690 mmHg 51%
    02:00 +15°C° 0 mm 2 mps 690 mmHg 53%
    03:00 +15°C° 0 mm 2 mps 690 mmHg 54%
    04:00 +14°C° 0 mm 2 mps 690 mmHg 56%
    05:00 +13°C° 0 mm 2 mps 690 mmHg 58%
    06:00 +13°C° 0 mm 1 mps 690 mmHg 60%
    07:00 +15°C° 0 mm 1 mps 691 mmHg 53%
    08:00 +19°C° 0 mm 1 mps 691 mmHg 46%
    09:00 +21°C° 0 mm 1 mps 692 mmHg 39%
    10:00 +22°C° 0 mm 1 mps 691 mmHg 36%
    11:00 +24°C° 0 mm 2 mps 691 mmHg 33%
    12:00 +25°C° 0 mm 2 mps 691 mmHg 29%
    13:00 +26°C° 0 mm 2 mps 691 mmHg 27%
    14:00 +27°C° 0 mm 2 mps 690 mmHg 25%
    15:00 +28°C° 0 mm 2 mps 690 mmHg 22%
    16:00 +26°C° 0 mm 1 mps 690 mmHg 26%
    17:00 +24°C° 0 mm 1 mps 689 mmHg 29%
    18:00 +23°C° 0 mm 1 mps 689 mmHg 33%
    19:00 +22°C° 0 mm 1 mps 689 mmHg 33%
    20:00 +21°C° 0 mm 1 mps 689 mmHg 34%
    21:00 +20°C° 0 mm 2 mps 689 mmHg 34%
    22:00 +20°C° 0 mm 1 mps 689 mmHg 35%
    23:00 +19°C° 0 mm 1 mps 689 mmHg 36%
    Show more